Location: Chaumontel
(49.1247°N, 2.4324°E)
Time: 21:20:18
(UTC+00:00)

Cosmos 841 Rocket - Visible Passes

Search period start: 01 October 2023 00:00
Search period end: 11 October 2023 00:00
Orbit: 746 x 770 km, 74.0° (Epoch: 01 October)

Date Brightness Start Highest point End Pass type
(mag) Time Alt. Az. Time Alt. Az. Time Alt. Az.
01 Oct 5.7 19:07:58 10° NNE 19:08:37 10° NE 19:09:16 10° NE visible
01 Oct 5.0 20:46:58 10° NNW 20:49:43 28° N 20:49:43 28° N visible
01 Oct 6.3 22:29:10 10° NW 22:29:45 13° NW 22:29:45 13° NW visible
02 Oct 4.9 20:07:10 10° N 20:10:21 25° NNE 20:10:21 25° NNE visible
02 Oct 5.8 21:48:45 10° NNW 21:50:24 20° NW 21:50:24 20° NW visible
03 Oct 5.1 19:27:34 10° N 19:31:02 19° NE 19:31:02 19° NE visible
03 Oct 5.2 21:08:34 10° NNW 21:11:05 29° NNW 21:11:05 29° NNW visible
04 Oct 5.4 18:48:23 10° NNE 18:50:36 13° NE 18:51:43 12° NE visible
04 Oct 4.6 20:28:33 10° NNW 20:31:46 36° N 20:31:46 36° N visible
04 Oct 6.3 22:11:10 10° NW 22:11:49 13° NW 22:11:49 13° NW visible
05 Oct 4.4 19:48:40 10° N 19:52:29 33° NE 19:52:29 33° NE visible
05 Oct 5.7 21:30:34 10° NW 21:32:33 22° NW 21:32:33 22° NW visible
06 Oct 4.7 19:08:57 10° N 19:13:03 23° NE 19:13:14 23° NE visible
06 Oct 4.9 20:50:16 10° NNW 20:53:18 35° NW 20:53:18 35° NW visible
07 Oct 5.2 18:29:29 10° N 18:32:33 16° NE 18:34:01 14° ENE visible
07 Oct 4.0 20:10:09 10° NNW 20:14:05 52° N 20:14:05 52° N visible
07 Oct 6.3 21:53:22 10° WNW 21:54:08 12° WNW 21:54:08 12° WNW visible
08 Oct 5.5 17:50:55 10° NNE 17:51:54 10° NE 17:52:52 10° NE visible
08 Oct 3.8 19:30:12 10° NNW 19:34:54 45° NE 19:34:54 45° NE visible
08 Oct 5.6 21:12:26 10° NW 21:14:57 23° WNW 21:14:57 23° WNW visible
09 Oct 4.4 18:50:23 10° N 18:54:52 29° NE 18:55:46 27° ENE visible
09 Oct 4.6 20:32:00 10° NNW 20:35:49 41° WNW 20:35:49 41° WNW visible
10 Oct 4.9 18:10:45 10° N 18:14:26 19° NE 18:16:41 15° E visible
10 Oct 3.4 19:51:47 10° NNW 19:56:44 79° WNW 19:56:44 79° WNW visible
10 Oct 6.3 21:35:58 10° WNW 21:36:49 11° W 21:36:49 11° W visible
